This is the latest recevied weather packets stored in our database for station/object WP3OF-1. If no packets are shown the sender has not sent any weather packets the latest 10 day(s).
| Time | Temp. | Humidity | Pressure | Rain* | Wind** | Luminosity | Snow |
|---|---|---|---|---|---|---|---|
| 1778072400 | 28.33° C | 73% | 1019.4 hPa | 0 mm | - | - | - |
| 1778072099 | 28.33° C | 75% | 1019.4 hPa | 0 mm | - | - | - |
| 1778071796 | 27.78° C | 75% | 1019.3 hPa | 0 mm | - | - | - |
| 1778071494 | 27.78° C | 76% | 1019.4 hPa | 0 mm | - | - | - |
| 1778071192 | 27.78° C | 76% | 1019.4 hPa | 0 mm | - | - | - |
| 1778070889 | 28.33° C | 77% | 1019.3 hPa | 0 mm | - | - | - |
| 1778070587 | 27.78° C | 77% | 1019.6 hPa | 0 mm | - | - | - |
| 1778070283 | 27.22° C | 76% | 1019.4 hPa | 0 mm | - | - | - |
| 1778069982 | 27.78° C | 76% | 1019.3 hPa | 0 mm | - | - | - |
| 1778069678 | 27.78° C | 77% | 1019.3 hPa | 0 mm | - | - | - |
| 1778069375 | 27.78° C | 76% | 1019.1 hPa | 0 mm | - | - | - |
| 1778069073 | 27.22° C | 77% | 1019.2 hPa | 0 mm | - | - | - |
| 1778068770 | 27.22° C | 79% | 1019.2 hPa | 0 mm | - | - | - |
| 1778068468 | 26.67° C | 82% | 1019.2 hPa | 0 mm | - | - | - |
| 1778068166 | 27.22° C | 80% | 1019.1 hPa | 0 mm | - | - | - |
| 1778067863 | 27.22° C | 78% | 1019.1 hPa | 0 mm | - | - | - |
| 1778067562 | 27.22° C | 78% | 1018.9 hPa | 0 mm | - | - | - |
| 1778067259 | 26.67° C | 78% | 1018.9 hPa | 0 mm | - | - | - |
| 1778066955 | 26.67° C | 79% | 1018.9 hPa | 0 mm | - | - | - |
| 1778066653 | 26.67° C | 78% | 1018.9 hPa | 0 mm | - | - | - |
| 1778066351 | 26.67° C | 80% | 1018.8 hPa | 0 mm | - | - | - |
| 1778066048 | 26.67° C | 80% | 1018.7 hPa | 0 mm | - | - | - |
| 1778065745 | 26.67° C | 81% | 1018.7 hPa | 0 mm | - | - | - |
| 1778065443 | 26.67° C | 81% | 1018.7 hPa | 0 mm | - | - | - |
| 1778065139 | 26.11° C | 82% | 1018.8 hPa | 0 mm | - | - | - |
* Rain latest hour (hover to see other rain measurements)
** Current wind speed in m/s (hover to see current wind gust speed)